This is the latest recevied weather packets stored in our database for station/object K5IDL. If no packets are shown the sender has not sent any weather packets the latest 10 day(s).
| Time | Temp. | Humidity | Pressure | Rain* | Wind** | Luminosity | Snow |
|---|---|---|---|---|---|---|---|
| 1777157546 | 30° C | 63% | 1005.5 hPa | 0 mm | - | 58 W/m² | - |
| 1777157243 | 30° C | 63% | 1004.9 hPa | 0 mm | - | 58 W/m² | - |
| 1777156942 | 30° C | 63% | 1005.3 hPa | 0 mm | - | 66 W/m² | - |
| 1777156637 | 30° C | 63% | 1005.5 hPa | 0 mm | - | 52 W/m² | - |
| 1777156335 | 30° C | 63% | 1005.5 hPa | 0 mm | - | 48 W/m² | - |
| 1777156030 | 30.56° C | 63% | 1005.8 hPa | 0 mm | - | 61 W/m² | - |
| 1777155727 | 30.56° C | 63% | 1005.8 hPa | 0 mm | - | 66 W/m² | - |
| 1777155423 | 30° C | 64% | 1005.8 hPa | 0 mm | - | 67 W/m² | - |
| 1777155120 | 30° C | 64% | 1005.9 hPa | 0 mm | - | 62 W/m² | - |
| 1777154817 | 30.56° C | 63% | 1005.9 hPa | 0 mm | - | 68 W/m² | - |
| 1777154514 | 30.56° C | 64% | 1005.9 hPa | 0 mm | - | 105 W/m² | - |
| 1777154209 | 30.56° C | 63% | 1005.9 hPa | 0 mm | - | 101 W/m² | - |
| 1777153905 | 30° C | 64% | 1006 hPa | 0 mm | - | 156 W/m² | - |
| 1777153602 | 30° C | 65% | 1005.9 hPa | 0 mm | - | 103 W/m² | - |
| 1777153297 | 30° C | 64% | 1006 hPa | 0 mm | - | 46 W/m² | - |
| 1777152994 | 30° C | 65% | 1005.8 hPa | 0 mm | - | 50 W/m² | - |
| 1777152691 | 30° C | 64% | 1005.9 hPa | 0 mm | - | 77 W/m² | - |
| 1777152387 | 30.56° C | 64% | 1005.9 hPa | 0 mm | - | 75 W/m² | - |
| 1777152083 | 30.56° C | 63% | 1005.9 hPa | 0 mm | - | 226 W/m² | - |
| 1777151778 | 30° C | 66% | 1006 hPa | 0 mm | - | 109 W/m² | - |
| 1777151475 | 30° C | 65% | 1006.1 hPa | 0 mm | - | 80 W/m² | - |
| 1777151172 | 30.56° C | 65% | 1006.2 hPa | 0 mm | - | 101 W/m² | - |
| 1777150871 | 30.56° C | 64% | 1006.3 hPa | 0 mm | - | 91 W/m² | - |
| 1777150566 | 31.11° C | 63% | 1006.2 hPa | 0 mm | - | 112 W/m² | - |
| 1777150262 | 30.56° C | 64% | 1006.3 hPa | 0 mm | - | 124 W/m² | - |
* Rain latest hour (hover to see other rain measurements)
** Current wind speed in m/s (hover to see current wind gust speed)